Wetbulb
34.10 34.19 33.53 34.81 35.71 37.41 38.08 36.94 34.02 30.65 34.99 40.38 43.34 50.89 52.46 54.44 53.58 53.49 55.33 51.66 50.86 53.87 54.47 55.95 56.97 57.49 57.60 58.06 58.53 59.24 59.83 59.80 60.21 60.48 60.70 61.12 61.23 61.19
34.15 32.98 34.58 34.65 34.53 37.32 38.06 37.52 37.02 35.61 33.80 43.61 46.98 50.53 53.38 53.91 53.45 55.24 56.17 53.06 52.54 51.78 51.53 53.43 54.46 55.22 55.32 55.42 55.79 56.66 57.33 58.09 58.68 59.03 59.56 60.46 60.49 60.78
34.93 32.98 32.98 33.81 33.59 35.75 38.18 37.74 37.71 37.08 34.14 38.52 50.45 52.77 54.47 53.74 54.23 55.65 56.63 58.07 55.18 51.50 50.89 51.42 51.49 51.83 52.41 52.55 53.11 53.94 54.84 55.60 56.31 57.38 58.17 59.22 59.99 60.18
33.17 33.17 32.26 34.42 34.46 37.11 37.71 37.29 37.46 38.00 35.88 35.17 49.68 52.22 53.10 53.86 55.28 57.57 58.92 59.62 58.61 51.92 51.14 50.74 50.24 50.04 50.02 50.02 50.54 51.00 51.94 52.38 53.10 54.12 55.24 56.69 58.01 58.84
32.08 31.90 32.26 33.86 33.69 35.23 37.72 37.07 37.44 37.97 37.71 36.60 49.05 51.00 51.09 54.14 57.15 58.66 58.51 58.39 58.18 51.82 49.43 49.29 49.55 49.54 49.14 49.01 49.48 49.80 49.68 49.65 50.17 50.65 50.96 51.64 53.48 55.08
31.84 32.26 33.89 34.98 35.16 36.80 37.98 39.31 39.88 38.80 39.69 40.20 46.55 49.69 55.18 56.77 57.45 56.21 55.89 56.55 54.64 58.59 55.23 54.47 51.33 49.01 48.64 48.49 48.48 48.94 48.90 49.19 49.11 48.95 48.14 47.72 48.57 50.56
32.09 32.77 34.43 38.29 38.39 38.92 38.71 39.28 41.35 40.64 42.93 45.26 51.28 54.44 54.74 54.94 54.80 56.27 54.98 55.36 56.78 57.41 54.94 54.78 55.48 55.83 52.69 50.16 49.87 48.37 47.68 48.10 48.51 48.65 48.03 46.94 46.80 48.10
30.81 32.47 34.25 35.26 37.36 37.65 37.24 37.08 39.58 48.47 51.55 53.13 53.15 52.82 54.03 54.75 56.07 55.04 54.88 54.21 52.66 57.34 56.40 56.01 57.52 55.83 56.51 56.99 48.64 46.51 46.75 47.14 47.34 47.68 47.41 47.11 46.28 46.31
31.23 32.07 32.49 34.39 36.45 38.58 37.92 37.98 36.94 36.53 34.77 50.27 45.59 47.81 50.14 55.26 55.58 55.10 54.94 54.49 53.95 56.28 52.48 45.97 46.28 42.41 43.61 44.55 44.10 45.54 45.81 45.77 46.04 46.21 45.92 45.63 44.96 44.60
31.59 31.99 32.92 33.69 35.74 38.12 37.59 37.04 37.24 36.22 37.10 39.66 39.59 39.48 43.36 56.68 56.68 56.19 55.71 55.28 52.27 50.25 50.14 40.98 42.98 40.89 41.21 40.00 40.17 41.42 42.08 43.25 44.43 45.13 44.30 42.83 41.91 40.81
31.42 32.21 32.67 33.45 35.24 37.41 36.78 36.28 36.05 35.92 38.62 38.43 38.13 38.64 39.05 42.51 52.75 56.78 51.56 49.47 46.17 44.87 46.50 42.57 40.15 36.98 37.46 38.48 40.88 38.81 38.48 39.56 40.40 41.60 42.34 40.96 39.72 39.69
30.85 31.91 32.90 33.15 34.36 34.82 34.81 36.32 33.47 33.33 36.50 38.07 38.37 38.30 39.94 40.48 41.26 54.55 52.29 46.86 44.59 44.06 41.58 41.20 41.02 39.61 34.30 36.44 36.84 38.89 39.71 38.08 37.36 38.63 40.38 41.93 44.22 46.50
29.69 30.53 32.42 33.14 33.60 34.43 34.36 33.82 33.44 35.43 35.13 36.12 35.91 36.09 36.17 36.40 37.57 40.04 46.57 49.65 41.60 38.19 41.12 43.59 41.16 38.16 35.62 33.03 33.98 35.22 36.37 37.42 38.34 37.64 36.24 37.01 38.43 43.00
29.97 30.89 32.35 33.80 33.55 33.16 33.22 33.72 34.06 35.35 35.52 34.76 33.61 32.89 33.33 33.30 33.92 34.97 35.31 35.60 35.80 37.45 44.64 48.80 46.02 43.45 37.07 33.47 32.38 32.92 33.36 34.44 34.69 34.18 35.12 35.93 35.17 33.88
31.69 32.13 32.95 33.32 33.53 32.99 32.72 32.57 33.37 34.45 33.79 33.00 32.32 32.01 32.40 34.43 36.51 36.51 36.25 35.01 33.00 32.62 35.86 46.38 47.01 45.36 41.15 34.17 31.74 31.99 30.44 30.15 31.81 31.31 31.02 30.54 30.30 30.97
32.01 32.20 31.84 31.88 32.74 32.75 32.95 32.95 33.07 33.12 33.05 32.76 32.50 33.33 34.65 34.82 34.58 36.10 35.30 34.57 31.83 30.21 31.32 33.23 36.91 37.66 33.62 33.27 32.43 29.41 30.65 28.13 29.55 29.41 28.60 28.08 28.56 28.94
32.96 32.19 31.30 31.73 31.26 31.29 31.82 32.24 32.50 32.82 32.05 32.78 33.15 33.44 33.53 33.38 33.84 35.49 35.22 34.22 31.43 29.67 29.17 30.32 30.81 31.12 31.44 31.48 28.38 28.78 28.14 27.49 28.63 28.45 27.04 24.82 26.00 26.99
32.47 30.71 29.98 30.28 30.99 31.54 30.72 30.81 31.37 31.53 31.81 32.66 32.47 32.55 32.40 32.76 32.77 34.15 34.06 33.70 32.43 32.19 31.77 32.31 32.72 32.07 31.33 29.31 30.82 27.84 27.69 27.21 28.07 28.21 26.72 23.96 23.41 26.33
31.00 30.67 30.78 30.24 30.72 30.92 31.29 32.78 31.99 32.09 32.29 31.91 31.77 32.48 31.97 31.96 32.72 32.24 32.75 33.27 31.88 31.61 31.42 32.61 33.04 31.61 26.35 22.96 26.97 29.30 27.67 28.02 26.80 25.67 25.82 24.09 22.35 23.13
31.56 30.84 30.65 30.90 31.62 31.50 31.76 32.18 32.41 32.64 32.46 31.79 31.71 31.62 31.58 31.28 31.01 30.83 30.66 29.95 29.55 29.22 28.75 29.30 28.85 29.97 30.65 26.88 23.49 25.38 28.79 29.50 27.57 26.04 26.01 27.78 28.14 27.16
31.54 31.24 31.49 31.60 31.96 32.79 33.02 32.92 32.92 31.85 31.61 31.20 31.08 31.34 31.13 30.63 29.31 29.18 28.89 29.01 29.03 28.21 26.60 26.43 27.74 29.59 29.12 28.89 24.62 23.59 25.35 27.39 28.61 30.84 30.83 29.91 28.52 28.96
32.27 31.22 31.40 32.60 32.16 32.55 33.21 33.10 32.94 32.57 32.20 31.75 31.68 31.77 31.22 30.96 29.43 29.19 29.19 27.99 27.34 27.25 27.18 28.84 30.41 30.00 28.14 25.54 23.17 23.19 23.66 24.67 25.70 25.68 25.43 25.51 27.88 27.44
32.75 32.16 32.11 31.69 32.47 31.78 32.72 32.35 32.23 32.63 32.46 32.70 32.20 31.75 32.18 30.50 30.51 30.36 29.38 28.89 28.69 28.37 28.71 28.07 29.20 29.95 28.33 27.36 26.50 25.51 25.51 26.23 26.99 26.02 24.65 24.07 24.20 24.12
MSLP
1012.36 1012.09 1011.98 1011.86 1011.86 1011.63 1011.49 1011.59 1011.37 1010.44 1008.98 1008.37 1008.05 1007.29 1007.54 1007.82 1008.73 1009.91 1010.51 1010.82 1011.92 1012.20 1013.50 1014.53 1016.13 1017.71 1019.03 1020.12 1021.21 1022.32 1023.27 1024.07 1024.86 1025.70 1026.25 1026.76 1027.30 1027.85
1011.37 1010.97 1010.74 1010.64 1010.72 1010.63 1010.60 1010.72 1010.69 1010.12 1009.00 1006.86 1006.74 1006.15 1006.76 1007.47 1008.59 1009.68 1010.00 1011.15 1011.84 1012.36 1013.25 1015.09 1016.49 1018.03 1019.37 1020.50 1021.61 1022.67 1023.61 1024.45 1025.19 1025.93 1026.49 1027.00 1027.59 1028.07
1010.05 1009.68 1009.30 1009.20 1009.27 1009.50 1009.54 1009.65 1009.67 1009.57 1009.36 1008.00 1005.19 1005.50 1006.34 1007.45 1008.44 1008.94 1009.46 1010.36 1012.03 1012.93 1014.25 1015.90 1016.91 1018.41 1019.77 1020.90 1022.02 1023.06 1023.85 1024.77 1025.45 1026.18 1026.80 1027.28 1027.87 1028.36
1009.25 1008.52 1007.83 1007.51 1007.77 1007.99 1008.32 1008.58 1008.85 1009.12 1009.11 1008.14 1004.73 1005.18 1006.33 1007.40 1007.92 1008.43 1009.02 1010.48 1012.14 1013.70 1015.06 1016.39 1017.38 1018.88 1020.23 1021.33 1022.46 1023.42 1024.23 1025.11 1025.80 1026.55 1027.11 1027.66 1028.18 1028.64
1008.91 1007.71 1006.80 1006.75 1007.05 1007.33 1007.58 1007.98 1008.32 1008.57 1008.43 1008.03 1005.31 1005.54 1006.29 1006.90 1007.01 1007.76 1009.10 1010.99 1012.57 1014.54 1015.66 1016.96 1018.23 1019.65 1020.79 1021.88 1022.92 1023.76 1024.71 1025.54 1026.14 1026.91 1027.44 1028.05 1028.50 1028.94
1008.68 1007.45 1006.61 1006.47 1006.46 1006.49 1007.22 1007.25 1007.42 1007.53 1007.59 1007.24 1005.85 1005.12 1005.26 1005.82 1006.54 1007.80 1010.36 1012.11 1013.65 1015.19 1016.72 1018.10 1019.35 1020.50 1021.61 1022.58 1023.52 1024.26 1025.19 1025.90 1026.53 1027.26 1027.81 1028.40 1028.80 1029.26
1008.77 1007.89 1007.16 1006.48 1006.44 1006.60 1006.29 1006.42 1006.36 1006.36 1006.22 1005.68 1004.76 1002.97 1004.44 1005.54 1007.16 1009.21 1010.66 1012.89 1014.88 1016.19 1017.88 1019.34 1020.36 1021.64 1022.70 1023.38 1024.17 1024.79 1025.63 1026.26 1026.91 1027.53 1028.14 1028.60 1029.07 1029.54
1009.45 1008.26 1007.70 1007.20 1007.19 1007.19 1006.74 1005.92 1003.80 1005.03 1004.61 1003.27 1003.81 1004.42 1005.77 1006.58 1008.48 1009.77 1010.91 1012.62 1014.71 1016.96 1018.07 1019.75 1020.88 1022.57 1023.17 1023.86 1024.57 1025.36 1025.96 1026.53 1027.22 1027.79 1028.38 1028.77 1029.32 1029.88
1010.45 1008.92 1008.21 1008.18 1006.96 1005.78 1004.69 1004.56 1004.67 1004.86 1005.05 1004.81 1005.85 1006.88 1007.38 1008.39 1009.26 1010.62 1012.17 1013.78 1015.29 1017.03 1018.59 1021.43 1022.91 1024.37 1025.22 1025.52 1025.65 1025.91 1026.41 1027.00 1027.60 1028.18 1028.66 1029.14 1029.74 1030.26
1011.18 1009.98 1009.55 1008.32 1007.30 1006.17 1006.20 1006.55 1007.38 1007.73 1007.84 1007.73 1008.12 1008.97 1009.08 1009.45 1010.36 1011.23 1012.94 1014.63 1016.99 1019.03 1020.11 1022.85 1024.24 1025.87 1026.66 1027.23 1027.33 1027.22 1027.40 1027.80 1028.23 1028.66 1029.16 1029.86 1030.48 1031.00
1012.60 1012.23 1011.21 1009.98 1009.45 1008.01 1007.87 1008.38 1008.58 1009.79 1009.81 1009.97 1009.89 1010.16 1010.68 1011.31 1011.60 1012.59 1014.69 1016.22 1018.67 1020.68 1022.09 1023.37 1025.34 1026.84 1027.83 1028.84 1029.12 1029.08 1028.79 1028.97 1029.13 1029.40 1029.87 1030.43 1030.99 1031.33
1013.91 1013.34 1012.91 1012.41 1011.05 1010.46 1009.87 1010.04 1010.50 1011.80 1010.94 1010.68 1011.28 1012.02 1012.74 1013.49 1013.98 1014.52 1015.77 1017.50 1019.77 1021.73 1023.72 1024.27 1025.72 1026.35 1028.94 1030.64 1030.48 1030.18 1030.28 1030.61 1030.64 1030.68 1030.76 1031.01 1030.92 1031.53
1015.81 1015.47 1015.30 1013.93 1012.95 1012.63 1012.55 1012.69 1013.57 1013.68 1013.50 1013.68 1013.99 1014.90 1015.50 1016.25 1016.99 1017.47 1018.04 1018.70 1020.76 1023.12 1024.08 1024.26 1025.63 1026.88 1028.88 1031.13 1031.82 1031.85 1031.74 1031.79 1031.84 1032.03 1032.42 1032.27 1032.03 1032.12
1017.87 1017.77 1017.39 1016.32 1015.49 1015.03 1014.80 1015.36 1015.17 1014.80 1015.13 1016.02 1016.77 1017.85 1018.41 1019.05 1019.73 1020.00 1020.79 1021.84 1022.86 1024.03 1024.13 1023.92 1024.89 1026.06 1028.30 1031.08 1032.16 1033.06 1033.18 1033.31 1033.28 1033.61 1033.94 1034.09 1033.96 1034.24
1019.44 1019.02 1018.22 1017.32 1016.91 1016.68 1017.06 1017.16 1017.14 1017.20 1017.46 1017.74 1018.95 1020.12 1020.38 1021.01 1021.04 1021.12 1022.25 1023.33 1024.26 1025.63 1025.79 1024.95 1025.54 1027.08 1028.62 1030.79 1032.52 1033.76 1034.20 1035.16 1035.15 1035.29 1035.41 1035.49 1035.82 1035.90
1020.17 1019.89 1019.44 1019.13 1019.00 1019.19 1019.07 1019.18 1019.39 1019.67 1019.87 1020.21 1020.77 1021.63 1021.97 1021.76 1022.07 1023.13 1023.37 1024.30 1025.61 1028.08 1028.62 1028.51 1028.50 1029.02 1030.71 1032.15 1033.05 1034.48 1035.09 1035.90 1036.75 1036.72 1036.88 1037.04 1037.24 1037.24
1021.74 1021.17 1021.10 1021.11 1021.12 1021.18 1021.22 1021.50 1021.81 1021.80 1021.68 1022.24 1022.44 1023.07 1023.20 1023.61 1024.43 1024.89 1024.90 1025.71 1027.20 1029.46 1030.42 1031.22 1031.52 1031.80 1032.68 1033.64 1034.71 1035.93 1036.51 1036.94 1037.58 1037.80 1037.78 1038.31 1038.72 1038.82
1022.92 1023.41 1023.76 1023.57 1023.37 1023.54 1023.62 1023.70 1023.50 1023.63 1024.04 1024.13 1024.17 1024.40 1024.69 1025.05 1025.79 1026.47 1026.40 1027.07 1028.64 1030.53 1030.97 1032.07 1032.22 1032.73 1033.65 1035.49 1036.67 1037.21 1037.71 1038.09 1038.12 1038.63 1038.76 1039.10 1039.80 1039.68
1024.82 1025.47 1025.61 1025.73 1025.71 1025.69 1025.55 1025.48 1025.67 1026.04 1026.10 1025.99 1026.18 1026.49 1026.79 1027.05 1026.99 1027.33 1028.35 1028.97 1030.31 1031.49 1032.05 1032.80 1032.59 1033.28 1035.60 1036.67 1038.45 1038.37 1038.29 1038.88 1038.98 1038.68 1040.04 1039.42 1040.47 1041.11
1027.34 1027.63 1027.62 1027.61 1027.46 1027.42 1027.42 1027.47 1027.75 1028.02 1028.08 1028.26 1028.22 1028.44 1028.46 1028.54 1028.71 1029.14 1029.77 1030.55 1031.64 1032.63 1033.41 1033.59 1033.83 1034.76 1034.97 1036.58 1037.94 1039.00 1039.23 1039.06 1038.72 1039.28 1040.03 1039.95 1040.37 1040.28
1029.66 1029.55 1029.58 1029.41 1029.31 1029.37 1029.55 1029.77 1029.92 1030.08 1030.15 1030.09 1030.13 1030.21 1030.40 1030.50 1030.99 1031.59 1032.11 1032.65 1033.32 1033.85 1034.73 1035.49 1036.24 1036.53 1036.72 1037.14 1038.25 1039.46 1040.11 1039.85 1039.54 1039.23 1039.49 1039.95 1040.35 1040.46
1031.18 1031.34 1031.34 1031.23 1031.18 1031.20 1031.26 1031.37 1031.35 1031.46 1031.48 1031.54 1031.73 1031.89 1032.21 1032.38 1032.73 1033.20 1033.65 1034.14 1034.99 1035.61 1036.13 1036.78 1037.13 1037.45 1037.60 1038.22 1039.22 1039.70 1040.19 1040.51 1040.46 1040.40 1040.47 1040.29 1040.08 1040.08
1032.61 1032.55 1032.87 1032.93 1032.66 1032.72 1032.39 1032.72 1033.01 1032.99 1033.01 1033.05 1033.12 1033.42 1033.56 1033.81 1034.25 1034.47 1034.72 1035.36 1035.93 1036.39 1036.77 1036.99 1037.29 1037.49 1038.16 1038.80 1039.30 1039.80 1040.03 1040.10 1040.00 1040.00 1040.26 1040.42 1040.30 1040.21
Wind_Speed
10 10 9 9 9 10 10 10 10 9 11 14 12 14 10 10 10 13 13 18 16 27 26 28 27 24 23 23 22 22 21 21 21 18 17 18 18 18
7 9 8 8 10 10 10 10 11 11 6 11 14 13 12 10 11 13 12 23 26 26 25 26 26 24 22 21 20 20 19 19 18 16 15 15 17 16
7 7 10 11 9 11 11 11 12 11 10 8 12 14 13 12 11 10 16 21 19 29 27 25 26 23 22 21 20 19 19 17 16 15 14 15 16 16
9 10 9 6 11 14 12 15 11 11 9 14 11 12 12 15 13 19 18 17 20 27 28 26 26 24 22 21 20 19 18 17 16 15 14 13 13 13
12 12 6 6 9 9 11 11 9 10 12 10 6 6 11 10 20 17 17 18 15 25 25 24 24 23 22 21 20 19 18 16 17 15 13 13 12 11
11 10 6 5 8 12 11 14 13 11 11 10 10 12 12 19 17 17 16 14 14 14 16 16 20 21 20 19 18 18 17 16 16 15 14 13 12 11
10 10 9 14 11 5 4 7 13 11 9 13 12 14 17 18 18 14 16 17 15 13 12 11 12 11 10 14 14 17 16 16 15 14 13 12 12 11
12 10 8 13 11 15 18 22 17 11 16 12 13 16 19 19 15 14 16 16 14 10 14 12 10 8 6 7 11 15 15 16 14 14 13 12 11 9
16 14 12 10 8 7 26 31 32 30 24 14 16 11 14 17 18 19 20 14 12 13 14 11 10 12 9 11 11 12 13 13 12 12 11 10 9 7
22 18 16 16 16 16 19 21 23 23 18 14 14 10 8 17 18 17 18 17 16 13 13 8 9 11 9 13 26 19 16 13 11 11 11 14 14 13
19 24 19 20 24 24 21 19 20 15 16 26 28 29 29 22 18 16 13 17 13 7 8 6 4 9 9 11 10 26 25 21 17 12 12 16 20 21
18 22 35 24 32 28 19 17 20 15 15 18 17 21 21 21 20 16 13 15 11 10 4 6 4 4 6 5 8 9 9 21 28 24 16 7 7 10
15 15 17 35 34 33 29 19 14 10 17 16 15 13 15 15 13 14 12 11 10 6 2 4 3 5 6 4 4 9 9 9 9 13 27 26 24 10
16 13 16 31 36 35 25 27 23 17 13 15 15 13 13 13 12 15 19 17 16 12 4 4 5 6 7 4 4 5 10 10 9 10 9 14 26 29
12 19 26 30 32 29 34 30 22 14 14 15 15 13 10 8 13 15 18 21 23 20 15 14 11 11 8 7 6 3 4 8 9 9 9 11 10 9
16 16 19 23 26 23 21 20 16 14 14 14 13 11 10 11 13 9 13 14 17 15 21 20 18 15 14 11 10 9 7 5 6 8 9 10 10 10
15 16 16 16 16 16 16 17 15 15 15 12 12 12 13 13 12 10 13 16 17 12 14 15 21 22 17 14 12 10 9 9 7 7 9 10 10 9
17 16 15 15 16 15 15 15 16 18 14 13 13 13 13 13 12 11 15 15 16 12 12 10 11 11 12 17 24 10 9 8 7 8 7 9 8 8
15 15 15 14 14 14 14 15 15 14 14 14 14 13 12 11 13 13 14 12 14 11 10 6 9 12 13 12 2 22 7 6 5 9 7 7 5 3
14 14 14 13 14 14 14 15 14 13 14 13 14 13 13 13 13 14 12 13 11 10 10 10 10 7 8 5 6 2 16 3 6 7 5 5 4 9
12 12 11 12 12 13 12 12 13 13 12 12 13 12 12 12 14 13 14 16 14 11 12 11 10 11 8 5 5 3 4 13 10 2 4 3 3 3
9 10 10 10 10 10 10 10 11 12 12 12 12 11 11 11 12 12 11 12 11 10 10 7 7 6 6 7 8 6 4 3 7 11 10 6 1 2
8 8 7 8 8 8 10 10 10 9 10 9 10 9 9 10 10 10 10 10 9 8 8 8 6 5 7 6 7 5 5 5 4 4 2 2 3 3
Wind_Direction
271 256 244 238 234 235 231 221 226 232 233 214 236 210 202 192 168 177 183 199 184 152 145 142 141 142 145 145 144 147 148 148 148 151 150 149 148 149
260 252 243 232 222 231 217 218 221 230 268 212 215 180 193 163 171 177 186 168 157 141 128 137 136 137 137 137 139 140 140 144 145 146 146 144 149 147
283 272 256 234 216 207 213 210 216 220 236 271 206 167 171 162 173 178 157 151 140 131 129 134 131 132 133 131 132 135 132 138 136 138 139 140 146 145
317 300 282 217 191 201 198 206 209 216 222 247 193 163 166 178 175 152 146 142 143 129 130 131 128 130 131 129 131 134 133 134 133 134 131 135 139 145
326 316 314 159 174 184 197 195 197 210 221 236 211 158 161 190 145 127 124 128 125 129 121 124 125 128 129 131 133 134 134 131 134 138 134 134 135 139
330 335 13 126 168 181 186 198 205 211 217 229 234 166 171 139 129 123 125 124 126 131 127 133 132 124 126 129 131 132 136 137 138 140 138 140 139 142
356 2 19 67 87 97 210 213 216 214 212 181 192 118 126 137 129 125 121 130 124 121 117 122 127 127 129 125 129 134 136 137 141 142 144 142 145 144
8 9 29 39 69 102 101 80 66 164 186 138 112 104 124 127 123 125 131 126 128 125 121 113 119 109 106 141 118 132 136 142 145 145 147 146 147 147
30 20 18 28 17 52 60 58 52 44 39 75 84 69 94 127 127 128 123 121 121 128 101 78 82 65 46 40 62 121 133 137 138 140 140 140 143 135
33 25 33 26 25 57 66 62 61 51 41 55 65 61 64 119 111 109 114 110 87 89 104 84 78 72 62 56 44 58 67 77 95 114 108 94 90 75
32 36 34 33 37 46 59 60 59 49 52 65 63 57 55 61 99 111 106 109 102 79 72 97 83 93 58 46 46 52 57 57 60 65 102 112 107 93
35 36 35 44 46 48 56 56 54 33 45 46 42 41 49 51 43 106 113 106 115 97 7 92 125 101 72 23 31 35 50 57 59 56 60 125 114 101
37 33 36 42 46 49 54 52 51 51 58 63 55 53 51 52 50 59 66 88 99 83 350 98 129 85 71 115 44 33 37 38 53 58 55 56 56 72
38 35 39 48 51 49 50 51 52 55 61 68 65 56 61 63 63 71 76 71 64 66 23 112 101 115 116 104 90 44 43 40 45 52 52 56 63 61
42 42 44 47 50 51 48 48 48 51 59 66 68 67 58 72 84 82 80 82 66 48 34 48 85 99 84 96 119 65 67 34 40 53 55 52 49 42
38 41 42 46 51 50 48 46 46 48 55 62 65 66 68 67 64 67 86 82 74 60 49 47 64 77 85 73 85 77 52 81 43 54 63 60 54 48
46 43 39 41 45 42 44 45 46 48 50 51 64 74 69 69 68 69 79 85 84 81 75 67 67 70 68 75 74 67 74 72 57 65 67 68 51 41
51 46 41 39 41 42 45 48 44 45 47 51 56 59 64 64 71 73 74 79 89 86 90 92 95 89 79 61 42 73 66 71 70 62 67 77 56 49
47 42 43 43 43 45 44 47 49 49 51 52 54 58 61 63 67 66 75 84 83 81 70 65 88 98 92 82 33 28 74 66 78 82 55 65 100 42
41 42 42 41 45 46 43 46 45 45 49 50 53 55 56 59 61 63 63 71 76 74 72 53 57 63 95 116 129 86 31 107 93 94 103 99 111 142
39 41 37 42 42 43 45 47 50 52 50 52 54 56 59 63 69 69 71 70 76 72 76 72 69 73 86 86 80 80 43 41 48 101 156 135 143 175
48 43 39 39 40 43 44 41 49 48 50 52 52 52 56 60 68 73 73 79 78 81 89 99 95 68 64 90 98 107 113 83 76 83 73 42 322 187
48 52 48 40 48 44 45 49 44 44 46 50 57 56 52 61 63 68 75 77 85 88 95 104 104 100 100 107 113 122 140 181 176 156 113 75 80 72